Flag for USA

Past Weather in Akron, Ohio, USA — Yesterday and Last 2 Weeks

Now
76 °F

Cloudy.


Feels Like: 78 °F
Forecast: 80 / 58 °F
Wind: 9 mph from South

Location: Akron Fulton International Airport
Current Time: Sep 28, 2020 at 7:06:25 pm
Latest Report: Sep 28, 2020 at 5:54 pm
Visibility: 10 mi
Pressure29.62 "Hg
Humidity: 60%
Dew Point: 61 °F
Location of AkronLocation

Past Weather in Akron — Graph

°F

Akron Temperature Yesterday

Maximum temperature yesterday: 79 °F (at 2:54 pm)
Minimum temperature yesterday: 65 °F (at 5:54 am)
Average temperature yesterday: 71 °F

High & Low Weather Summary for the Past Weeks

 TemperatureHumidityPressure
High80 °F (Sep 25, 3:54 pm)93% (Sep 17, 6:21 am)30.53 "Hg (Sep 17, 6:21 am)
Low41 °F (Sep 19, 6:54 am)31% (Sep 20, 4:54 pm)29.62 "Hg (Sep 28, 5:54 pm)
Average62 °F66%30.13 "Hg
* Reported Sep 13 5:54 pm — Sep 28 5:54 pm, Akron. Weather by CustomWeather, © 2020

Note: Actual official high and low records may vary slightly from our data, if they occured in-between our weather recording intervals... More about our weather records

Akron Weather History for the Previous 24 Hours

Scroll right to see more
 ConditionsComfort  
Time TempWeatherWind HumidityBarometerVisibility
5:54 pm
Mon, Sep 28
76 °FCloudy.9 mph60%29.62 "Hg10 mi
4:54 pm75 °FBroken clouds.3 mph69%29.63 "Hg10 mi
4:04 pm73 °FLight rain. Broken clouds.6 mph74%29.68 "Hg5 mi
2:54 pm78 °FMore clouds than sun.9 mph54%29.67 "Hg10 mi
1:54 pm78 °FOvercast.15 mph54%29.70 "Hg10 mi
12:54 pm79 °FPassing clouds.20 mph54%29.72 "Hg10 mi
11:54 am77 °FSunny.15 mph58%29.72 "Hg10 mi
10:54 am73 °FSunny.12 mph69%29.75 "Hg10 mi
9:54 am70 °FSunny.12 mph76%29.75 "Hg10 mi
8:54 am67 °FBroken clouds.9 mph81%29.76 "Hg10 mi
8:14 am66 °FMostly cloudy.9 mph84%29.77 "Hg10 mi
7:54 am66 °FLight rain. Mostly cloudy.6 mph81%29.75 "Hg8 mi
6:54 am64 °FClear.7 mph84%29.74 "Hg10 mi
5:54 am63 °FPassing clouds.3 mph87%29.74 "Hg10 mi
4:54 am64 °FClear.7 mph84%29.74 "Hg10 mi
3:54 am64 °FPassing clouds.5 mph84%29.75 "Hg10 mi
2:54 am65 °FPassing clouds.3 mph81%29.76 "Hg10 mi
1:54 am66 °FClear.6 mph78%29.77 "Hg10 mi
12:54 am66 °FClear.6 mph78%29.78 "Hg10 mi
11:54 pm
Sun, Sep 27
68 °FClear.8 mph76%29.80 "Hg10 mi
10:54 pm69 °FMostly cloudy.7 mph76%29.80 "Hg10 mi
9:54 pm69 °FClear.6 mph73%29.81 "Hg10 mi
8:54 pm67 °FClear.No wind76%29.81 "Hg6 mi
7:54 pm73 °FClear.6 mph64%29.80 "Hg10 mi
Weather by CustomWeather, © 2020

See weather overview